Regional Weather Roundup
Issued by NWS

Home | Current Version | Previous Version | Graphics & Text | Print | Product List | Glossary Off
Versions: 1 2 3 4 5 6 7 8 9 10 11 12 13 14 15 16 17 18 19 20 21 22 23 24 25 26 27 28 29 30 31 32 33 34 35 36 37 38 39 40 41 42 43 44 45 46 47 48 49 50

000
ASUS43 KDMX 231506
RWRIA

WEATHER ROUNDUP FOR IOWA
NATIONAL WEATHER SERVICE DES MOINES IA
1000 AM CDT SAT SEP 23 2017

NOTE: "FAIR" INDICATES FEW OR NO CLOUDS BELOW 12,000 FEET WITH NO
SIGNIFICANT WEATHER AND/OR OBSTRUCTIONS TO VISIBILITY.

* - THESE STATIONS ARE NOT NWS STATIONS...THUS NOT UNDER NWS
QUALITY CONTROL.  THEY ALSO DO NOT REPORT WEATHER SUCH
AS PRECIPITATION OR FOG.

IAZ001>003-012>014-020>022-031>034-043>046-231600-
   NORTHWEST IOWA

CITY           SKY/WX    TMP DP  RH WIND       PRES   REMARKS
CARROLL *      SUNNY     81  70  69 S13       30.00S HX  84
CHEROKEE *     SUNNY     76  70  81 S9        29.97R
DENISON *      CLOUDY    79  68  69 S10       30.00S HX  81
LE MARS *      CLOUDY    68  63  83 CALM      29.96S
ORANGE CITY *  MOSUNNY   72  66  83 S5        29.97S
SHELDON *      PTSUNNY   73  66  78 VRB5      29.96R
SIOUX CITY     MOSUNNY   66  62  87 CALM      29.96S
SPENCER        SUNNY     76  68  76 MISG      29.98R
STORM LAKE *   SUNNY     77  68  73 S12       29.99S
$$

IAZ055>058-069>071-079>083-090>094-231600-
   SOUTHWEST IOWA

CITY           SKY/WX    TMP DP  RH WIND       PRES   REMARKS
ATLANTIC *     SUNNY     79  68  69 S12       30.01R HX  81
AUDUBON *      SUNNY     79  72  78 S12       30.02S HX  82
CLARINDA *     SUNNY     81  70  69 S7        30.04R HX  84
COUNCIL BLFS * SUNNY     79  70  73 S13       29.98S HX  81
CRESTON *      SUNNY     81  68  65 S13       30.06R HX  83
HARLAN  *      CLOUDY    79  68  69 S12       30.03R HX  81
LAMONI         SUNNY     78  70  76 SE6       30.05R HX  80
RED OAK *      SUNNY     81  68  65 S13       30.01R HX  83
SHENANDOAH *   MOSUNNY   82  68  61 S10G17    30.00F HX  85
$$

IAZ047>049-059>061-072>074-084-231600-
   CENTRAL IOWA

CITY           SKY/WX    TMP DP  RH WIND       PRES   REMARKS
AMES           SUNNY     81  71  71 S9        30.03S HX  85
ANKENY *       SUNNY     79  70  73 S5        30.05R HX  81
BOONE *        SUNNY     81  68  65 S9        30.03S HX  83
CHARITON *     SUNNY     81  68  65 S7        30.05S HX  83
DES MOINES     MOSUNNY   80  69  69 S6        30.03R HX  83
GRINNELL*      SUNNY     81  67  63 SW6       30.07S HX  83
KNOXVILLE *    SUNNY     81  68  65 S8        30.04S HX  83
MARSHALLTOWN   SUNNY     82  69  64 S8        30.04R HX  85
NEWTON *       SUNNY     81  68  65 SW6       30.05S HX  83
PELLA *        SUNNY     82  67  60 S5        30.06S HX  84
PERRY *          N/A     82  70  67 S12       30.03R HX  85
$$

IAZ004>006-015-016-023>025-035-036-231600-
   NORTH CENTRAL IOWA

CITY           SKY/WX    TMP DP  RH WIND       PRES   REMARKS
ALGONA *       SUNNY     79  70  73 S14       30.00R HX  81
CLARION *      SUNNY     81  70  69 S12G20    30.02R HX  84
ESTHERVILLE    SUNNY     76  70  82 S10       29.98S
FORT DODGE *   MOSUNNY   80  69  69 S12       30.02R HX  83
MASON CITY     SUNNY     79  68  69 S13       30.04R HX  81
FOREST CITY *    N/A     79  68  69 S10       30.02R HX  81
WEBSTER CITY * SUNNY     79  68  69 S9G15     30.01R HX  81
IOWA FALLS *   PTSUNNY   80  69  67 S8        30.05S HX  83
$$

IAZ007>011-017>019-026>030-037>042-050>054-066-231600-
   NORTHEAST IOWA

CITY           SKY/WX    TMP DP  RH WIND       PRES   REMARKS
CEDAR RAPIDS   SUNNY     80  66  62 S8        30.06R HX  82
CHARLES CITY * SUNNY     79  68  69 S9        30.04F HX  81
CLINTON *      SUNNY    N/A N/A N/A S5        30.09S
DECORAH *      SUNNY     79  68  69 S8        30.05S HX  81
DUBUQUE        SUNNY     79  66  64 SW8       30.09R HX  81
MONTICELLO *   SUNNY     82  64  54 CALM      30.07S HX  84
OELWEIN *      SUNNY     81  68  65 S10       30.07S HX  83
WATERLOO       SUNNY     80  66  62 S6        30.04S HX  82
$$

IAZ064-065-067-068-078-231600-
   EAST CENTRAL IOWA

CITY           SKY/WX    TMP DP  RH WIND       PRES   REMARKS
DAVENPORT      SUNNY     81  66  60 S7        30.10R HX  83
IOWA CITY      SUNNY     79  66  64 CALM      30.08R HX  81
MUSCATINE *    SUNNY     77  66  69 VRB3      30.07S
QUAD CITIES    SUNNY     82  66  58 SW3       30.07S HX  84
$$

IAZ062-063-075>077-085>089-095>099-231600-
   SOUTHEAST IOWA

CITY           SKY/WX    TMP DP  RH WIND       PRES   REMARKS
BURLINGTON     SUNNY     81  68  64 S6        30.07R HX  84
FAIRFIELD *    SUNNY     81  66  61 S6        30.06S HX  83
FORT MADISON * SUNNY     82  66  57 S5        30.08S HX  85
KEOKUK *       SUNNY     84  66  54 S5        30.07R HX  86
OSKALOOSA *      N/A     82  67  59 SW3       30.06S HX  85
OTTUMWA        SUNNY     80  67  64 CALM      30.06R HX  82
WASHINGTON *   SUNNY     81  68  65 CALM      30.07S HX  83
$$

ABBREVIATIONS USED IN REMARKS
   TC - TEMPERATURES IN CELSIUS
  WCI - WIND CHILL INDEX
   HX - HEAT INDEX
  VSB - VISIBILITY
$$




USA.gov is the U.S. government's official web portal to all federal, state and local government web resources and services.